Location: Blandford
(50.8667°N, 2.1667°W)
Time: 00:34:17
(UTC+00:00)

Nadezhda 1 Rocket - Pass Details

Date: 09 April 2020
Orbit: 941 x 1006 km, 83.0° (Epoch: 04 June)

Event Time Altitude Azimuth Distance (km) Brightness Sun altitude
Rises 19:17:33 0° 169° (SSE) 3,721 6.7 -4.2°
Reaches altitude 10° 19:20:09 10° 164° (SSE) 2,772 6.1 -4.6°
Maximum altitude 19:26:15 50° 91° (E) 1,251 4.3 -5.5°
Drops below altitude 10° 19:32:20 10° 18° (NNE) 2,760 6.4 -6.4°
Sets 19:34:55 0° 14° (NNE) 3,704 7.1 -6.8°
